Regional Weather Roundup
Issued by NWS

Home | Current Version | Previous Version | Graphics & Text | Print | Product List | Glossary Off
Versions: 1 2 3 4 5 6 7 8 9 10 11 12 13 14 15 16 17 18 19 20 21 22 23 24 25 26 27 28 29 30 31 32 33 34 35 36 37 38 39 40 41 42 43 44 45 46 47 48 49 50

000
ASUS44 KMEG 290010
RWRTN
TENNESSEE HOURLY STATE WEATHER ROUNDUP
NATIONAL WEATHER SERVICE MEMPHIS TN
700 PM CDT SAT MAR 28 2015

TNZ002-004-019-021-049-052-054-088>092-290100-
WEST TENNESSEE

CITY           SKY/WX    TMP DP  RH WIND       PRES   REMARKS
MEMPHIS INTL   CLOUDY    43  24  47 E6        30.28R
NWS MEMPHIS      N/A     42 N/A N/A MISG        N/A
JACKSON        PTCLDY    41  24  51 W7        30.27R
DYERSBURG      CLEAR     43  19  39 W7        30.29R
UNION CITY     CLEAR     43  21  42 NE6       30.26S
PARIS          CLEAR     39  14  35 N6        30.27S WCI  35
LEXINGTON      CLEAR     45   9  23 NE5       30.24S
SAVANNAH       CLOUDY    43  18  36 W3        30.26S
$$

TNZ008-025-027-028-033-062-065-066-290100-
NORTH MIDDLE TENNESSEE

CITY           SKY/WX    TMP DP  RH WIND       PRES   REMARKS
NASHVILLE      CLEAR     42  12  29 NE9       30.27R
CLARKSVILLE    CLEAR     41  15  35 N6        30.27S
SMYRNA         CLEAR     42  13  31 N7        30.28S
COOKEVILLE     CLEAR     39  12  33 N3        30.24R
CROSSVILLE     CLEAR     38   9  30 N7        30.21R WCI  33
$$

TNZ061-075-076-078-094-096-097-290100-
SOUTH MIDDLE TENNESSEE

CITY           SKY/WX    TMP DP  RH WIND       PRES   REMARKS
FAYETTEVILLE   CLEAR     39  12  33 N6        30.23S WCI  35
TULLAHOMA      CLEAR     39   7  26 N6        30.24S WCI  35
WINCHESTER     CLEAR     39  12  33 NW7       30.24S WCI  34
MCMINNVILLE    CLEAR     39  10  30 N6        30.24R WCI  35
COLUMBIA       CLEAR     45  12  26 N5        30.23S
SHELBYVILLE    CLEAR     41  16  36 N6        30.26S
$$

TNZ017-018-042-046-047-290100-
NORTHEAST TENNESSEE

CITY           SKY/WX    TMP DP  RH WIND       PRES   REMARKS
TRI CITIES     PTCLDY    34   9  35 N8        30.19R WCI  27
ELIZABETHTON   CLEAR     34   7  32 NW6       30.18R WCI  29
$$

TNZ012-013-036-069-073-074-290100-
CENTRAL EAST TENNESSEE

CITY           SKY/WX    TMP DP  RH WIND       PRES   REMARKS
KNOXVILLE      CLEAR     42  10  27 N10       30.21R
OAK RIDGE      CLEAR     43   8  23 VRB6      30.24R
GATLINBURG     CLEAR     39  12  33 NE3       30.21R
MORRISTOWN     CLEAR     37  12  35 N6        30.21R WCI  33
$$

TNZ083-085-099-290100-
SOUTHEAST TENNESSEE

CITY           SKY/WX    TMP DP  RH WIND       PRES   REMARKS
CHATTANOOGA    PTCLDY    46   6  19 N13       30.22R
$$

SKY/WX REPORTED AS FAIR MEANS FEW OR NO CLOUDS BELOW
12 THOUSAND FEET.



USA.gov is the U.S. government's official web portal to all federal, state and local government web resources and services.